Regional Weather Roundup
Issued by NWS

Home | Current Version | Previous Version | Graphics & Text | Print | Product List | Glossary On
Versions: 1 2 3 4 5 6 7 8 9 10 11 12 13 14 15 16 17 18 19 20 21 22 23 24 25 26 27 28 29 30 31 32 33 34 35 36 37 38 39 40 41 42 43 44 45 46 47 48 49 50
000
ASUS43 KDTX 242010
RWRMI
MICHIGAN HOURLY REGIONAL WEATHER ROUNDUP
NATIONAL WEATHER SERVICE DETROIT/PONTIAC MI
400 PM EDT THU JUL 24 2014

NOTE: "FAIR" INDICATES FEW OR NO CLOUDS BELOW 12,000 FEET WITH NO
SIGNIFICANT WEATHER AND/OR OBSTRUCTION TO VISIBILITY.

MIZ047>049-052>055-059>063-066>070-074>076-081>083-242100-
SOUTHEAST LOWER MICHIGAN

CITY           SKY/WX    TMP DP  RH WIND       PRES   REMARKS
ALMA           PTSUNNY   72  45  37 CALM      30.10F
ANN ARBOR      MOSUNNY   72  47  40 NE12      30.09F
BAD AXE        SUNNY     71  43  36 N8        30.10F
DETROIT CITY   PTSUNNY   77  47  34 N10       30.08F
DETROIT        MOSUNNY   75  47  36 NE8G18    30.08F
FLINT          PTSUNNY   73  48  41 NW10      30.10F
GROSSE ILE     MOSUNNY   73  48  40 NE8G16    30.07F
HILLSDALE      MOSUNNY   72  48  42 N7        30.11F
HOWELL         PTSUNNY   73  46  37 NE6       30.10F

CITY           SKY/WX    TMP DP  RH WIND       PRES   REMARKS
JACKSON        MOSUNNY   74  51  44 VRB6      30.10F
LAMBERTVILLE   PTSUNNY   73  48  40 SE5       30.09F
LANSING        MOSUNNY   72  49  44 E5        30.11F
LAPEER         NOT AVBL
MASON          PTSUNNY   73  50  44 N9        30.10F
MONROE         PTSUNNY   73  48  40 E3        30.07S
MT. CLEMENS    PTSUNNY   72  50  45 NE8       30.07F
PONTIAC        PTSUNNY   74  47  38 NW8       30.09F
PORT HOPE        N/A     67  55  65 CALM      30.10F
PORT HURON     SUNNY     70  52  52 NE10G16   30.10F
TRI CITIES     MOSUNNY   72  48  42 CALM      30.10F
YPSILANTI      MOSUNNY   79  47  32 N6        30.09F
$$
MIZ043>046-050>051-056>058-064>065-071>073-077>080-242100-
SOUTHWEST LOWER MICHIGAN

CITY           SKY/WX    TMP DP  RH WIND       PRES   REMARKS
BATTLE CREEK   MOSUNNY   73  48  41 N7        30.11F
BENTON HARBOR  SUNNY     67  53  61 NW9G18    30.13F
BIG RAPIDS     MOSUNNY   72  46  40 NW6       30.10F
COLDWATER      MOSUNNY   73  50  44 E7        30.10F
HOLLAND        SUNNY     70  53  54 NW8       30.13F
GRAND RAPIDS   PTSUNNY   73  51  46 VRB5      30.11F
KALAMAZOO      PTSUNNY   73  48  41 VRB6      30.10F
MARSHALL       MOSUNNY   70  49  48 NE3       30.10F
MUSKEGON       MOSUNNY   72  47  40 W13       30.12F
$$
MIZ016>042-242100-
NORTHERN LOWER MICHIGAN

CITY           SKY/WX    TMP DP  RH WIND       PRES   REMARKS
ALPENA         SUNNY     74  49  41 VRB6      30.07F
BEAVER ISLAND  SUNNY     68  55  63 SW10      30.10F
BELLAIRE       SUNNY     71  45  39 W3        30.10F
CADILLAC       PTSUNNY   70  49  48 CALM      30.10F
CHARLEVOIX     SUNNY     70  49  48 W12       30.14F
FRANKFORT      CLEAR     71  47  41 W9        30.12F
GAYLORD        SUNNY     69  46  43 NW5       30.11F
GRAYLING       MOSUNNY   71  47  42 CALM      30.11F
HARBOR SPRINGS SUNNY     67  50  54 SW9       30.10F
HOUGHTON LAKE  MOSUNNY   71  47  42 SW8       30.10F
MANISTEE       SUNNY     68  43  40 NW10      30.13F
OSCODA         MOSUNNY   71  48  43 SE8       30.09S
PELLSTON       SUNNY     73  48  41 NW6       30.09F
TRAVERSE CITY  MOSUNNY   72  43  35 NE9       30.09F
$$
MIZ007>008-015-242100-
EASTERN UPPER MICHIGAN

CITY           SKY/WX    TMP DP  RH WIND       PRES   REMARKS
KINROSS        SUNNY     72  52  49 NW7       30.07S
MACKINAC ISLAN SUNNY     67  54  62 SW8       30.08F
NEWBERRY       MOSUNNY   71  52  49 CALM      30.06F
S. S. MARIE    SUNNY     70  50  49 NW9       30.06F
$$
MIZ004>006-011>014-085-242100-
CENTRAL UPPER MICHIGAN

CITY           SKY/WX    TMP DP  RH WIND       PRES   REMARKS
MANISTIQUE     SUNNY     68  53  58 SW12G18   30.07F
ESCANABA       SUNNY     70  48  46 S15       30.07F
MENOMINEE      SUNNY     73  50  43 S9G17     30.07F
SAWYER-GWINN   MOSUNNY   73  48  40 SW8       30.07F
$$
MIZ001>003-009>011-084-242100-
WESTERN UPPER MICHIGAN

CITY           SKY/WX    TMP DP  RH WIND       PRES   REMARKS
IRON MOUNTAIN  MOSUNNY   75  48  38 W7        30.05F
HOUGHTON       SUNNY     73  49  42 NW13G21   30.05F
COPPER HARBOR    N/A     66  52  60 N14       30.04F
$$

ABBREVIATIONS USED IN REMARKS
   TC - TEMPERATURE IN CELSIUS
  WCI - WIND CHILL INDEX
   HX - HEAT INDEX
  VSB - VISIBILITY




USA.gov is the U.S. government's official web portal to all federal, state and local government web resources and services.